TimeCST,TemperatureF,Dew PointF,Humidity,Sea Level PressureIn,VisibilityMPH,Wind Direction,Wind SpeedMPH,Gust SpeedMPH,PrecipitationIn,Events,Conditions,WindDirDegrees,DateUTC
12:58 AM,38.1,36.1,93,29.94,10.0,West,3.5,-,N/A,,Clear,280,2013-11-09 06:58:00
1:58 AM,42.3,35.6,77,29.94,10.0,WNW,4.6,-,N/A,,Clear,290,2013-11-09 07:58:00
2:58 AM,38.7,34.9,86,29.98,10.0,WNW,3.5,-,N/A,,Clear,300,2013-11-09 08:58:00
3:58 AM,37.2,34.0,88,29.99,10.0,WNW,8.1,-,N/A,,Clear,300,2013-11-09 09:58:00
4:58 AM,37.6,32.7,83,30.02,10.0,WNW,4.6,-,N/A,,Clear,290,2013-11-09 10:58:00
5:58 AM,37.8,32.7,82,30.05,10.0,WNW,8.1,-,N/A,,Clear,290,2013-11-09 11:58:00
6:58 AM,40.6,32.2,72,30.08,10.0,West,10.4,-,N/A,,Clear,280,2013-11-09 12:58:00
7:58 AM,45.1,34.2,65,30.10,10.0,WNW,9.2,-,N/A,,Clear,290,2013-11-09 13:58:00
8:58 AM,48.6,34.5,58,30.14,10.0,West,6.9,-,N/A,,Clear,280,2013-11-09 14:58:00
9:58 AM,52.7,34.2,49,30.16,10.0,WNW,9.2,-,N/A,,Clear,300,2013-11-09 15:58:00
10:58 AM,55.0,34.3,46,30.17,10.0,WNW,11.5,-,N/A,,Clear,290,2013-11-09 16:58:00
11:58 AM,56.8,34.7,43,30.18,10.0,NW,12.7,-,N/A,,Clear,310,2013-11-09 17:58:00
12:58 PM,58.8,35.2,41,30.17,10.0,West,9.2,-,N/A,,Clear,280,2013-11-09 18:58:00
1:58 PM,60.4,34.9,38,30.16,10.0,West,10.4,-,N/A,,Clear,270,2013-11-09 19:58:00
2:58 PM,60.8,34.0,37,30.17,10.0,NW,10.4,-,N/A,,Clear,310,2013-11-09 20:58:00
3:58 PM,59.0,34.5,40,30.19,10.0,WNW,12.7,-,N/A,,Clear,290,2013-11-09 21:58:00
4:58 PM,52.3,35.4,53,30.21,10.0,NW,5.8,-,N/A,,Clear,320,2013-11-09 22:58:00
5:58 PM,47.7,34.5,60,30.25,10.0,West,2.3,-,N/A,,Clear,270,2013-11-09 23:58:00
6:58 PM,50.2,35.1,56,30.26,10.0,NW,6.9,-,N/A,,Clear,320,2013-11-10 00:58:00
7:58 PM,48.4,33.4,56,30.29,10.0,NNW,3.5,-,N/A,,Clear,330,2013-11-10 01:58:00
8:58 PM,44.6,33.1,64,30.32,10.0,WNW,1.2,-,N/A,,Clear,290,2013-11-10 02:58:00
9:58 PM,38.7,32.9,80,30.34,10.0,North,4.6,-,N/A,,Clear,350,2013-11-10 03:58:00
10:58 PM,45.3,32.9,62,30.35,10.0,North,9.2,-,N/A,,Clear,350,2013-11-10 04:58:00
11:58 PM,42.3,32.4,68,30.38,10.0,North,5.8,-,N/A,,Partly Cloudy,10,2013-11-10 05:58:00